Location: downtown San Diego
(32.7310°N, 117.1990°W)
Time: 05:33:55
(UTC-07:00)

YAOGAN 6 - Pass Details

Date: 19 May 2017
Orbit: 469 x 508 km, 97.1° (Epoch: 22 July)

Event Time Altitude Azimuth Distance (km) Brightness Sun altitude
Exits shadow 21:49:51 34° 239° (WSW) 786 3.7 -22.6°
Maximum altitude 21:50:23 37° 261° (W) 748 3.7 -22.7°
Drops below altitude 10° 21:53:40 10° 331° (NNW) 1,632 6.3 -23.2°
Sets 21:55:49 0° 340° (NNW) 2,512 7.3 -23.5°
